Location: Estherville
(43.4020°N, 94.8330°W)
Time: 21:48:34
(UTC-05:00)

Tiangong 2 - Visible Passes

Search period start: 21 March 2019 00:00
Search period end: 31 March 2019 00:00
Orbit: 379 x 390 km, 42.8° (Epoch: 21 March)

Date Brightness Start Highest point End Pass type
(mag) Time Alt. Az. Time Alt. Az. Time Alt. Az.
21 Mar 2.9 05:16:09 27° ESE 05:16:09 27° ESE 05:17:46 10° ESE visible
21 Mar 2.8 06:48:37 10° WSW 06:51:02 20° SSW 06:53:26 10° SSE visible
22 Mar 2.1 05:51:54 30° SSW 05:51:54 30° SSW 05:54:33 10° SE visible
23 Mar 3.2 06:27:47 11° SW 06:28:34 12° SSW 06:29:57 10° S visible
24 Mar 3.8 05:31:35 11° SSE 05:31:35 11° SSE 05:31:41 10° SSE visible
30 Mar 2.5 20:54:09 10° SSW 20:56:36 21° SSE 20:56:40 21° SSE visible
